This is the latest recevied weather packets stored in our database for station/object KG4QWI. If no packets are shown the sender has not sent any weather packets the latest 10 day(s).
| Time | Temp. | Humidity | Pressure | Rain* | Wind** | Luminosity | Snow |
|---|---|---|---|---|---|---|---|
| 1777344638 | 18.89° C | 57% | 1017 hPa | 0 mm | - | 0 W/m² | - |
| 1777342838 | 19.44° C | 58% | 1017.2 hPa | 0 mm | - | 0 W/m² | - |
| 1777342547 | 19.44° C | 59% | 1017.1 hPa | 0 mm | - | 0 W/m² | - |
| 1777341042 | 20° C | 60% | 1017.1 hPa | 0 mm | - | 0 W/m² | - |
| 1777340138 | 20° C | 60% | 1016.9 hPa | 0 mm | - | 0 W/m² | - |
| 1777338338 | 20.56° C | 59% | 1016.5 hPa | 0 mm | - | 0 W/m² | - |
| 1777337738 | 20.56° C | 59% | 1016.3 hPa | 0 mm | - | 0 W/m² | - |
| 1777335637 | 21.67° C | 55% | 1015.9 hPa | 0 mm | - | 0 W/m² | - |
| 1777334138 | 22.22° C | 54% | 1016.2 hPa | 0 mm | - | 11 W/m² | - |
| 1777333546 | 22.78° C | 53% | 1016.2 hPa | 0 mm | - | 12 W/m² | - |
| 1777333238 | 22.78° C | 53% | 1016.3 hPa | 0 mm | - | 18 W/m² | - |
| 1777332938 | 22.78° C | 53% | 1016.3 hPa | 0 mm | - | 16 W/m² | - |
| 1777330538 | 23.33° C | 52% | 1016.3 hPa | 0 mm | - | 23 W/m² | - |
| 1777329337 | 23.89° C | 50% | 1016.1 hPa | 0 mm | - | 25 W/m² | - |
| 1777328739 | 23.89° C | 53% | 1016.3 hPa | 0 mm | - | 30 W/m² | - |
| 1777327538 | 24.44° C | 54% | 1016.5 hPa | 0 mm | - | 32 W/m² | - |
| 1777326347 | 23.89° C | 55% | 1016.5 hPa | 0 mm | - | 90 W/m² | - |
| 1777326039 | 23.89° C | 54% | 1016.6 hPa | 0 mm | - | 33 W/m² | - |
| 1777325139 | 23.89° C | 53% | 1016.6 hPa | 0 mm | - | 33 W/m² | - |
| 1777322442 | 23.89° C | 56% | 1016.7 hPa | 0 mm | - | 51 W/m² | - |
| 1777321846 | 23.89° C | 57% | 1016.9 hPa | 0 mm | - | 70 W/m² | - |
| 1777321540 | 23.89° C | 56% | 1017.1 hPa | 0 mm | - | 84 W/m² | - |
| 1777320051 | 23.33° C | 55% | 1017.5 hPa | 0 mm | - | 90 W/m² | - |
| 1777319740 | 23.33° C | 55% | 1017.5 hPa | 0 mm | - | 98 W/m² | - |
| 1777318839 | 23.33° C | 53% | 1017.6 hPa | 0 mm | - | 190 W/m² | - |
* Rain latest hour (hover to see other rain measurements)
** Current wind speed in m/s (hover to see current wind gust speed)